Location: Newark
(33.6439°N, 114.9881°W)
Time: 09:48:46
(UTC+00:00)

Tiros 1 - Pass Details

Date: 29 July 2019
Orbit: 630 x 664 km, 48.4° (Epoch: 19 August)

Event Time Altitude Azimuth Distance (km) Brightness Sun altitude
Rises 22:32:28 0° 311° (NW) 2,996 10.9 50.2°
Reaches altitude 10° 22:34:52 10° 316° (NW) 2,081 10.2 49.7°
Maximum altitude 22:39:37 57° 35° (NE) 776 8.0 48.7°
Drops below altitude 10° 22:44:19 10° 114° (ESE) 2,066 9.5 47.7°
Sets 22:46:41 0° 119° (ESE) 2,972 10.2 47.2°
